Overview Statistics Trail Chart Weather Telemetry Raw packets
 

This is the latest recevied weather packets stored in our database for station/object N4UUJ-1. If no packets are shown the sender has not sent any weather packets the latest 10 day(s).

<< 15 16 17 18 19 20 >>
Time Temp. Humidity Pressure Rain* Wind** Luminosity Snow
1787858365 30° C 75% 1018.5 hPa 0 mm - - -
1787856564 29.44° C 75% 1018.5 hPa 0 mm - - -
1787854763 29.44° C 75% 1019 hPa 0 mm - - -
1787852962 27.22° C 75% 1019.2 hPa 0 mm - - -
1787851161 28.33° C 75% 1019.3 hPa 0 mm - - -
1787849360 28.89° C 75% 1019.6 hPa 0 mm - - -
1787847559 27.78° C 75% 1019.8 hPa 0 mm - - -
1787845758 27.22° C 75% 1019.7 hPa 0 mm - - -
1787843957 26.11° C 75% 1019.7 hPa 0 mm - - -
1787842156 25.56° C 75% 1019.6 hPa 0 mm - - -
1787840355 24.44° C 75% 1019.4 hPa 0 mm - - -
1787838554 22.78° C 75% 1019.3 hPa 0 mm - - -
1787836753 18.89° C 75% 1019.4 hPa 0 mm - - -
1787834952 17.22° C 75% 1019.3 hPa 0 mm - - -
1787833151 15.56° C 75% 1018.8 hPa 0 mm - - -
1787831350 15.56° C 75% 1018.8 hPa 0 mm - - -
1787829549 15° C 75% 1018.7 hPa 0 mm - - -
1787827748 15° C 75% 1018.6 hPa 0 mm - - -
1787825947 15.56° C 75% 1018.4 hPa 0 mm - - -
1787824146 15.56° C 75% 1018.3 hPa 0 mm - - -
1787822345 15.56° C 75% 1018.6 hPa 0 mm - - -
1787820544 15.56° C 75% 1018.5 hPa 0 mm - - -
1787818743 15.56° C 75% 1018.6 hPa 0 mm - - -
1787816942 15.56° C 75% 1018.5 hPa 0 mm - - -
1787815141 16.11° C 75% 1018.9 hPa 0 mm - - -

* Rain latest hour (hover to see other rain measurements)
** Current wind speed in m/s (hover to see current wind gust speed)